804  
ASUS42 KCHS 291027  
RWRCHS  
 
REGIONAL WEATHER ROUNDUP  
NATIONAL WEATHER SERVICE CHARLESTON SC  
600 AM EDT WED MAR 29 2017  
 
NOTE: "FAIR" INDICATES FEW OR NO CLOUDS BELOW 12,000 FEET WITH NO  
SIGNIFICANT WEATHER AND/OR S TO VISIBILITY
.  
 
NOT ALL STATIONS ARE QUALITY CONTROLLED. USE DATA WITH CAUTION...  
ESPECIALLY DEWPOINT OBSERVATIONS.  
 
SCZ027-030-031-034>040-042>050-291100-   
..SOUTHEAST SOUTH CAROLINA
 
 
 
CITY SKY/WX TMP DP RH WIND PRES REMARKS
 
N CHARLESTON CLEAR 58 56 93 N6 29.95R  
WATERFRONT PRK N/A 65 63 93 N5 29.93R  
JOHNS ISLAND FAIR 63 61 94 NW5 29.96R  
PINOPOLIS N/A 64 61 88 NE6 29.86R  
MONCKS CORNER FAIR 57 57 100 N3 29.97R  
SUMMERVILLE FAIR 59 57 94 CALM 29.97R  
BEAUFORT MCAS CLEAR 62 61 96 CALM 29.96R  
BEAUFORT ARPT FAIR 63 61 94 CALM 29.96R  
HILTON HEAD IS NOT AVBL  
WALTERBORO SUNNY 59 55 88 NE5 29.98R  
ALLENDALE FAIR 59 55 88 CALM 29.97R  
   
..SOUTHERN MIDLANDS AND PEE DEE
 
 
 
CITY SKY/WX TMP DP RH WIND PRES REMARKS
 
GEORGETOWN FAIR 61 55 82 N7 29.96R  
KINGSTREE FAIR 55 52 88 CALM 29.98R  
ORANGEBURG CLEAR 58 54 86 N3 29.98R  
BARNWELL FAIR 59 55 88 N3 29.99R  
AIKEN FAIR 52 50 93 CALM 30.03R  
MANNING FAIR 57 50 77 NE3 29.98R  
COLUMBIA CLEAR 54 51 90 CALM 29.99R  
SUMTER CLEAR 59 49 70 N5 29.96R  
FLORENCE CLEAR 59 52 77 N5 29.98R  
MYRTLE BEACH CLEAR 62 53 72 N9 29.96R  
N MYRTLE BEACH CLEAR 62 54 74 N8 29.95R  
 

 
 
GAZ063-065-086>088-099>101-113>116-118-119-134>141-150-291100-   
..SOUTHEAST GEORGIA
 
 
 
CITY SKY/WX TMP DP RH WIND PRES REMARKS
 
SAVANNAH ARPT CLEAR 62 58 86 W5 29.96R  
HUNTER AAF CLEAR 61 61 100 CALM 29.94R  
FORT STEWART CLEAR 60 58 91 W3 29.95R  
STATESBORO CLEAR 58 32 36 CALM 29.98R  
SYLVANIA MOSUNNY N/A N/A N/A CALM 29.99R FOG  
CLAXTON FAIR N/A N/A N/A CALM 29.98R  
   
..CSRA...CENTRAL AND FAR SOUTHEAST GEORGIA
 
 
 
CITY SKY/WX TMP DP RH WIND PRES REMARKS
 
THOMSON CLEAR 52 50 95 SE6 30.04R  
AUGUSTA-BUSH CLEAR 57 55 93 N5 29.98R  
AUGUSTA-DANIEL CLEAR 64 52 64 NE7 29.99R  
SWAINSBORO FAIR 61 61 100 N3 29.98F  
VIDALIA CLEAR 64 61 88 CALM 29.99R  
EASTMAN FAIR 60 60 100 CALM 30.01R  
HAZLEHURST FAIR 65 65 100 CALM 29.98R  
ALMA CLEAR 64 63 96 W3 29.98R  
WAYCROSS CLEAR 67 67 100 NW6 29.98S  
JESUP FAIR 64 61 88 CALM 29.98R  
BAXLEY FAIR 61 61 100 CALM 29.98R  
BRUNSWICK CLEAR 63 63 100 W6 29.98R  
SAINT SIMONS CLEAR 66 60 81 W7 29.96S  
 

 
 
SCZ027-028-034-036>038-045-046-048>050-GAZ119-141-291100-   
..LAKE AND SUPPLEMENTAL COASTAL OBSERVATIONS
 
 
 
STATION/POSITION TIME TEMP WIND PRES WAVE SWELL
 
AIR SEA DIR/SP/G HT/PER HT/PER/DIR  
(UTC) (F) (DEG/KT/KT) (MB) (FT/S) (FT/S/D)  
WINYAH BAY 0930 64 350/ 6 1013.0S  
LAKE MURRAY 1020 59 CALM 1015.6  
ACE BASIN NERRS 0930 61 CALM 1014.0S  
FORT PULASKI 1000 66 66 280/ 3/ 4 1014.6  
SAPELO ISLAND 1000 66 300/ 2 1015.0  
 

 
 
ANZ835-935-AMZ111-154-330-350-352-354-370-450-454-472-291100-   
..C-MAN AND BUOY OBSERVATIONS
 
 
 
STATION/POSITION TIME TEMP WIND PRES WAVE SWELL
 
AIR SEA DIR/SP/G HT/PER HT/PER/DIR  
(UTC) (F) (DEG/KT/KT) (MB) (FT/S) (FT/S/D)  
BUOY 41004 0950 68 71 270/ 14/ 16 1013.2R 5/10 3/120/10  
BUOY 41008 0950 67 65 260/ 6/ 8 1014.2R 3/ 8 3/ 80/ 8  
FOLLY BEACH CMAN 1000 63 310/ 3/ 4 1014.6R  
CAPERS NEARSHORE NOT AVBL  
FRIPP NEARSHORE 1008 65 63 270/ 6/ 10 1014.0R  
 
 
STATION/POSITION TIME TEMP WIND PRES WAVE SWELL
 
AIR SEA DIR/SP/G HT/PER HT/PER/DIR  
(UTC) (F) (DEG/KT/KT) (MB) (FT/S) (FT/S/D)  
5E ST. MARYS GA 1000 67 N/A 3/10 2/100/11  
FRYING PAN BUOY 1010 67 73 360/ 10/ 14 1013.6  
BUOY 41025 0950 64 73 360/ 17/ 21 1013.6R 4/10 3/140/10  
CAPE LOOKOUT NC 1000 64 330/ 5/ 5 1013.6R  
BUOY 41002 0950 71 72 240/ 17/ 21 1013.2F 6/10 5/ 90/10  
BUOY 41010 NOT AVBL  
ST AUGUSTINE FL 1000 63 67 210/ 4/ 6 1016.4R  
 

 
 
 
CLICK HERE TO GO TO PREVIOUS BULLETINS.

The Nexlab SC Page
The Nexlab GA Page Main Text Page